Location: Courçay
(47.2523°N, 0.8761°E)
Time: 07:42:05
(UTC+00:00)

Cosmos 2251 Rocket - Pass Details

Date: 18 November 2025
Orbit: 760 x 788 km, 74.0° (Epoch: 13 December)

Event Time Altitude Azimuth Distance (km) Brightness Sun altitude
Rises 17:25:44 0° 184° (S) 3,229 7.0 -11.5°
Reaches altitude 10° 17:28:09 10° 179° (S) 2,311 6.2 -11.9°
Maximum altitude 17:33:12 50° 105° (ESE) 988 3.7 -12.7°
Drops below altitude 10° 17:38:20 10° 32° (NNE) 2,346 5.6 -13.6°
Enters shadow 17:38:36 - 31° (NNE) 2,449 5.7 -13.6°
